Location: Dodgeville
(42.9600°N, 90.1300°W)
Time: 17:19:29
(UTC-05:00)

Uosat F - Visible Passes

Search period start: 01 October 2014 00:00
Search period end: 11 October 2014 00:00
Orbit: 752 x 762 km, 98.7° (Epoch: 01 October)

Date Brightness Start Highest point End Pass type
(mag) Time Alt. Az. Time Alt. Az. Time Alt. Az.
01 Oct 12.0 05:10:03 10° NNE 05:14:58 50° E 05:19:51 10° S visible
02 Oct 13.4 04:31:43 10° NE 04:35:35 22° E 04:39:25 10° SE visible
02 Oct 11.4 06:09:46 10° N 06:14:35 46° WNW 06:19:23 10° SW visible
03 Oct 11.2 05:30:28 10° NNE 05:35:32 78° ESE 05:40:35 10° S visible
04 Oct 12.7 04:51:43 10° NNE 04:56:17 33° E 05:00:48 10° SSE visible
04 Oct 11.9 06:30:36 10° N 06:34:59 31° WNW 06:39:22 10° SW visible
05 Oct 13.9 04:14:05 10° ENE 04:16:47 14° E 04:19:29 10° ESE visible
05 Oct 11.0 05:51:02 10° N 05:56:03 69° WNW 06:01:04 10° SSW visible
06 Oct 11.9 05:11:59 10° NNE 05:16:55 51° E 05:21:49 10° S visible
07 Oct 13.4 04:33:37 10° NE 04:37:32 22° E 04:41:26 10° SE visible
07 Oct 11.4 06:11:43 10° N 06:16:31 45° WNW 06:21:18 10° SW visible
08 Oct 11.2 05:32:24 10° NNE 05:37:29 80° ESE 05:42:32 10° S visible
09 Oct 12.7 04:53:37 10° NNE 04:58:13 34° E 05:02:47 10° SSE visible
09 Oct 11.9 06:32:33 10° N 06:36:54 30° WNW 06:41:15 10° SW visible
10 Oct 13.9 04:15:55 10° NE 04:18:44 15° E 04:21:32 10° SE visible
10 Oct 11.0 05:52:57 10° N 05:57:59 67° WNW 06:02:59 10° SSW visible
